Home   Weather   Tarija   Past weeks

Flag for Bolivia Past Weather in Tarija, Bolivia — Yesterday and Last 2 Weeks

Now
63 °F

Scattered clouds.


Feels Like: 63 °F
Forecast: 60 / 80 °F
Wind: No wind

Location: Tarija Airport

Current Time: Dec 6, 2016 at 6:26:15 am

Latest Report: Dec 6, 2016 at 6:00 am


Visibility: N/A

Pressure: 30.04 "Hg (24.09 "Hg at 1874m altitude)

Humidity: 88%

Dew Point: 59 °F

Location of TarijaLocation

Past Weather in Tarija — Graph

°F

Tarija Temperature Yesterday

Maximum temperature yesterday: 91 °F (at 1:00 pm)
Minimum temperature yesterday: 63 °F (at 6:00 am)
Average temperature yesterday: 75 °F

High & Low Weather Summary for the Past Weeks

 TemperatureHumidityPressure
High91 °F (Dec 5, 1:00 pm)100% (Nov 21, 7:00 pm)30.33 "Hg (Nov 21, 7:00 pm)
Low52 °F (Nov 21, 7:00 pm)27% (Nov 26, 1:00 pm)29.83 "Hg (Nov 26, 3:00 pm)
Average70 °F68%30.06 "Hg
* Reported Nov 21 6:00 am — Dec 6 12:00 am, Tarija, Weather by CustomWeather, © 2016

Note: Actual official high and low records may vary slightly from our data, if they occured in-between our weather recording intervals... More about our weather records

Advertising

Tarija Weather History for the Previous 24 Hours

Scroll right to see more
 ConditionsComfort  
Time TempWeatherWind HumidityBarometerVisibility
12:00 am
Tue, Dec 6
68 °FClear.No wind78%30.01 "HgN/A
11:00 pm
Mon, Dec 5
66 °FPassing clouds.3 mph83%30.04 "HgN/A
10:00 pm68 °FClear.No wind83%30.01 "HgN/A
9:00 pm70 °FClear.5 mph78%30.01 "HgN/A
8:00 pm72 °FPassing clouds.9 mph69%29.92 "HgN/A
7:00 pm70 °FPassing clouds.No wind73%29.98 "HgN/A
6:00 pm70 °FPartly sunny.No wind73%29.95 "HgN/A
5:00 pm66 °FBroken clouds.No wind78%29.95 "HgN/A
4:00 pm72 °FThunderstorms. Broken clouds.14 mph73%29.95 "HgN/A
3:00 pm82 °FThunderstorms. Broken clouds.12 mph48%29.86 "Hg5 mi
2:00 pm90 °FScattered clouds.14 mph41%29.86 "HgN/A
1:00 pm91 °FPassing clouds.14 mph38%29.86 "HgN/A
12:00 pm86 °FPassing clouds.61 mph43%29.86 "HgN/A
11:00 am84 °FClear.6 mph43%29.92 "HgN/A
10:00 am81 °FClear.5 mph48%29.92 "HgN/A
9:00 am77 °FClear.No wind51%29.95 "HgN/A
8:00 am72 °FClear.No wind65%29.95 "HgN/A
7:00 am68 °FClear.No wind73%29.95 "HgN/A
6:00 am63 °FClear.No wind83%29.95 "HgN/A
Weather by CustomWeather, © 2016

See weather overviewHow to use our weather pages